Year,Month,Day,Hour,Minute,Value (Times are PST for insolation in W/m^2)
2018,07,08,00,00,0.00
2018,07,08,00,01,0.00
2018,07,08,00,02,0.00
2018,07,08,00,03,0.00
2018,07,08,00,04,0.00
2018,07,08,00,05,0.00
2018,07,08,00,06,0.00
2018,07,08,00,07,0.00
2018,07,08,00,08,0.00
2018,07,08,00,09,0.00
2018,07,08,00,10,0.00
2018,07,08,00,11,0.00
2018,07,08,00,12,0.00
2018,07,08,00,13,0.00
2018,07,08,00,14,0.00
2018,07,08,00,15,0.00
2018,07,08,00,16,0.00
2018,07,08,00,17,0.00
2018,07,08,00,18,0.00
2018,07,08,00,19,0.00
2018,07,08,00,20,0.00
2018,07,08,00,21,0.00
2018,07,08,00,22,0.00
2018,07,08,00,23,0.00
2018,07,08,00,24,0.00
2018,07,08,00,25,0.00
2018,07,08,00,26,0.00
2018,07,08,00,27,0.00
2018,07,08,00,28,0.00
2018,07,08,00,29,0.00
2018,07,08,00,30,0.00
2018,07,08,00,31,0.00
2018,07,08,00,32,0.00
2018,07,08,00,33,0.00
2018,07,08,00,34,0.00
2018,07,08,00,35,0.00
2018,07,08,00,36,0.00
2018,07,08,00,37,0.00
2018,07,08,00,38,0.00
2018,07,08,00,39,0.00
2018,07,08,00,40,0.00
2018,07,08,00,41,0.00
2018,07,08,00,42,0.00
2018,07,08,00,43,0.00
2018,07,08,00,44,0.00
2018,07,08,00,45,0.00
2018,07,08,00,46,0.00
2018,07,08,00,47,0.00
2018,07,08,00,48,0.00
2018,07,08,00,49,0.00
2018,07,08,00,50,0.00
2018,07,08,00,51,0.00
2018,07,08,00,52,0.00
2018,07,08,00,53,0.00
2018,07,08,00,54,0.00
2018,07,08,00,55,0.00
2018,07,08,00,56,0.00
2018,07,08,00,57,0.00
2018,07,08,00,58,0.00
2018,07,08,00,59,0.00
2018,07,08,01,00,0.00
2018,07,08,01,01,0.00
2018,07,08,01,02,0.00
2018,07,08,01,03,0.00
2018,07,08,01,04,0.00
2018,07,08,01,05,0.00
2018,07,08,01,06,0.00
2018,07,08,01,07,0.00
2018,07,08,01,08,0.00
2018,07,08,01,09,0.00
2018,07,08,01,10,0.00
2018,07,08,01,11,0.00
2018,07,08,01,12,0.00
2018,07,08,01,13,0.00
2018,07,08,01,14,0.00
2018,07,08,01,15,0.00
2018,07,08,01,16,0.00
2018,07,08,01,17,0.00
2018,07,08,01,18,0.00
2018,07,08,01,19,0.00
2018,07,08,01,20,0.00
2018,07,08,01,21,0.00
2018,07,08,01,22,0.00
2018,07,08,01,23,0.00
2018,07,08,01,24,0.00
2018,07,08,01,25,0.00
2018,07,08,01,26,0.00
2018,07,08,01,27,0.00
2018,07,08,01,28,0.00
2018,07,08,01,29,0.00
2018,07,08,01,30,0.00
2018,07,08,01,31,0.00
2018,07,08,01,32,0.00
2018,07,08,01,33,0.00
2018,07,08,01,34,0.00
2018,07,08,01,35,0.00
2018,07,08,01,36,0.00
2018,07,08,01,37,0.00
2018,07,08,01,38,0.00
2018,07,08,01,39,0.00
2018,07,08,01,40,0.00
2018,07,08,01,41,0.00
2018,07,08,01,42,0.00
2018,07,08,01,43,0.00
2018,07,08,01,44,0.00
2018,07,08,01,45,0.00
2018,07,08,01,46,0.00
2018,07,08,01,47,0.00
2018,07,08,01,48,0.00
2018,07,08,01,49,0.00
2018,07,08,01,50,0.00
2018,07,08,01,51,0.00
2018,07,08,01,52,0.00
2018,07,08,01,53,0.00
2018,07,08,01,54,0.00
2018,07,08,01,55,0.00
2018,07,08,01,56,0.00
2018,07,08,01,57,0.00
2018,07,08,01,58,0.00
2018,07,08,01,59,0.00
2018,07,08,02,00,0.00
2018,07,08,02,01,0.00
2018,07,08,02,02,0.00
2018,07,08,02,03,0.00
2018,07,08,02,04,0.00
2018,07,08,02,05,0.00
2018,07,08,02,06,0.00
2018,07,08,02,07,0.00
2018,07,08,02,08,0.00
2018,07,08,02,09,0.00
2018,07,08,02,10,0.00
2018,07,08,02,11,0.00
2018,07,08,02,12,0.00
2018,07,08,02,13,0.00
2018,07,08,02,14,0.00
2018,07,08,02,15,0.00
2018,07,08,02,16,0.00
2018,07,08,02,17,0.00
2018,07,08,02,18,0.00
2018,07,08,02,19,0.00
2018,07,08,02,20,0.00
2018,07,08,02,21,0.00
2018,07,08,02,22,0.00
2018,07,08,02,23,0.00
2018,07,08,02,24,0.00
2018,07,08,02,25,0.00
2018,07,08,02,26,0.00
2018,07,08,02,27,0.00
2018,07,08,02,28,0.00
2018,07,08,02,29,0.00
2018,07,08,02,30,0.00
2018,07,08,02,31,0.00
2018,07,08,02,32,0.00
2018,07,08,02,33,0.00
2018,07,08,02,34,0.00
2018,07,08,02,35,0.00
2018,07,08,02,36,0.00
2018,07,08,02,37,0.00
2018,07,08,02,38,0.00
2018,07,08,02,39,0.00
2018,07,08,02,40,0.00
2018,07,08,02,41,0.00
2018,07,08,02,42,0.00
2018,07,08,02,43,0.00
2018,07,08,02,44,0.00
2018,07,08,02,45,0.00
2018,07,08,02,46,0.00
2018,07,08,02,47,0.00
2018,07,08,02,48,0.00
2018,07,08,02,49,0.00
2018,07,08,02,50,0.00
2018,07,08,02,51,0.00
2018,07,08,02,52,0.00
2018,07,08,02,53,0.00
2018,07,08,02,54,0.00
2018,07,08,02,55,0.00
2018,07,08,02,56,0.00
2018,07,08,02,57,0.00
2018,07,08,02,58,0.00
2018,07,08,02,59,0.00
2018,07,08,03,00,0.00
2018,07,08,03,01,0.00
2018,07,08,03,02,0.00
2018,07,08,03,06,0.00
2018,07,08,03,07,0.00
2018,07,08,03,08,0.00
2018,07,08,03,09,0.00
2018,07,08,03,10,0.00
2018,07,08,03,11,0.00
2018,07,08,03,12,0.00
2018,07,08,03,13,0.00
2018,07,08,03,14,0.00
2018,07,08,03,15,0.00
2018,07,08,03,16,0.00
2018,07,08,03,17,0.00
2018,07,08,03,18,0.00
2018,07,08,03,19,0.00
2018,07,08,03,20,0.00
2018,07,08,03,21,0.00
2018,07,08,03,22,0.00
2018,07,08,03,23,0.00
2018,07,08,03,24,0.00
2018,07,08,03,25,0.00
2018,07,08,03,26,0.00
2018,07,08,03,27,0.00
2018,07,08,03,28,0.00
2018,07,08,03,29,0.00
2018,07,08,03,30,0.00
2018,07,08,03,31,0.00
2018,07,08,03,32,0.00
2018,07,08,03,33,0.00
2018,07,08,03,34,0.00
2018,07,08,03,35,0.00
2018,07,08,03,36,0.00
2018,07,08,03,37,0.00
2018,07,08,03,38,0.00
2018,07,08,03,39,0.00
2018,07,08,03,40,0.00
2018,07,08,03,41,0.00
2018,07,08,03,42,0.00
2018,07,08,03,43,0.00
2018,07,08,03,44,0.00
2018,07,08,03,45,0.00
2018,07,08,03,46,0.00
2018,07,08,03,47,0.00
2018,07,08,03,48,0.00
2018,07,08,03,49,0.00
2018,07,08,03,50,0.00
2018,07,08,03,51,0.00
2018,07,08,03,52,0.00
2018,07,08,03,53,0.00
2018,07,08,03,54,0.00
2018,07,08,03,55,0.00
2018,07,08,03,56,0.00
2018,07,08,03,57,0.00
2018,07,08,03,58,0.00
2018,07,08,03,59,0.00
2018,07,08,04,00,0.00
2018,07,08,04,01,0.00
2018,07,08,04,02,0.00
2018,07,08,04,03,0.00
2018,07,08,04,04,0.00
2018,07,08,04,05,0.00
2018,07,08,04,06,0.00
2018,07,08,04,07,0.00
2018,07,08,04,08,0.00
2018,07,08,04,09,0.00
2018,07,08,04,10,0.00
2018,07,08,04,11,0.00
2018,07,08,04,12,0.00
2018,07,08,04,13,0.00
2018,07,08,04,14,0.00
2018,07,08,04,15,0.00
2018,07,08,04,16,0.00
2018,07,08,04,17,0.00
2018,07,08,04,18,0.00
2018,07,08,04,19,0.00
2018,07,08,04,20,0.00
2018,07,08,04,21,0.00
2018,07,08,04,22,0.00
2018,07,08,04,23,0.00
2018,07,08,04,24,0.00
2018,07,08,04,25,0.00
2018,07,08,04,26,0.00
2018,07,08,04,27,0.00
2018,07,08,04,28,0.00
2018,07,08,04,29,0.00
2018,07,08,04,30,0.00
2018,07,08,04,31,0.00
2018,07,08,04,32,0.00
2018,07,08,04,33,0.00
2018,07,08,04,34,0.00
2018,07,08,04,35,0.00
2018,07,08,04,36,0.00
2018,07,08,04,37,0.00
2018,07,08,04,38,0.00
2018,07,08,04,39,0.00
2018,07,08,04,40,0.00
2018,07,08,04,41,0.00
2018,07,08,04,42,0.00
2018,07,08,04,43,0.00
2018,07,08,04,44,0.00
2018,07,08,04,45,0.00
2018,07,08,04,46,0.00
2018,07,08,04,47,0.00
2018,07,08,04,48,0.00
2018,07,08,04,49,0.00
2018,07,08,04,50,0.00
2018,07,08,04,51,0.00
2018,07,08,04,52,0.00
2018,07,08,04,53,0.00
2018,07,08,04,54,0.00
2018,07,08,04,55,0.00
2018,07,08,04,56,0.00
2018,07,08,04,57,0.00
2018,07,08,04,58,0.00
2018,07,08,04,59,0.00
2018,07,08,05,00,0.00
2018,07,08,05,01,0.00
2018,07,08,05,02,0.00
2018,07,08,05,03,0.00
2018,07,08,05,04,0.00
2018,07,08,05,05,0.00
2018,07,08,05,06,0.00
2018,07,08,05,07,0.00
2018,07,08,05,08,0.00
2018,07,08,05,09,0.00
2018,07,08,05,10,0.00
2018,07,08,05,11,0.00
2018,07,08,05,12,0.00
2018,07,08,05,13,0.00
2018,07,08,05,14,0.00
2018,07,08,05,15,0.00
2018,07,08,05,16,0.00
2018,07,08,05,17,0.00
2018,07,08,05,18,0.00
2018,07,08,05,19,0.00
2018,07,08,05,20,0.00
2018,07,08,05,21,0.00
2018,07,08,05,22,0.00
2018,07,08,05,23,0.00
2018,07,08,05,24,0.00
2018,07,08,05,25,0.00
2018,07,08,05,26,0.00
2018,07,08,05,27,3.50
2018,07,08,05,28,5.00
2018,07,08,05,29,5.00
2018,07,08,05,30,5.00
2018,07,08,05,31,5.00
2018,07,08,05,32,5.40
2018,07,08,05,33,7.00
2018,07,08,05,34,7.00
2018,07,08,05,35,7.00
2018,07,08,05,36,7.00
2018,07,08,05,37,7.00
2018,07,08,05,38,7.00
2018,07,08,05,39,8.70
2018,07,08,05,40,9.00
2018,07,08,05,41,9.00
2018,07,08,05,42,9.00
2018,07,08,05,43,9.00
2018,07,08,05,44,9.60
2018,07,08,05,45,11.00
2018,07,08,05,46,11.00
2018,07,08,05,47,11.00
2018,07,08,05,48,11.00
2018,07,08,05,49,11.00
2018,07,08,05,50,11.00
2018,07,08,05,51,11.90
2018,07,08,05,52,12.00
2018,07,08,05,53,12.00
2018,07,08,05,54,12.00
2018,07,08,05,55,12.00
2018,07,08,05,56,12.00
2018,07,08,05,57,12.90
2018,07,08,05,58,14.00
2018,07,08,05,59,14.00
2018,07,08,06,00,14.00
2018,07,08,06,01,14.00
2018,07,08,06,02,14.00
2018,07,08,06,03,14.10
2018,07,08,06,04,16.30
2018,07,08,06,05,18.00
2018,07,08,06,06,18.00
2018,07,08,06,07,18.00
2018,07,08,06,08,18.00
2018,07,08,06,09,18.00
2018,07,08,06,10,18.60
2018,07,08,06,11,19.00
2018,07,08,06,12,18.20
2018,07,08,06,13,18.00
2018,07,08,06,14,19.00
2018,07,08,06,15,19.00
2018,07,08,06,16,18.80
2018,07,08,06,17,18.30
2018,07,08,06,18,19.00
2018,07,08,06,19,19.00
2018,07,08,06,20,19.00
2018,07,08,06,21,19.00
2018,07,08,06,22,19.00
2018,07,08,06,23,19.00
2018,07,08,06,24,20.80
2018,07,08,06,25,21.00
2018,07,08,06,26,21.00
2018,07,08,06,27,21.00
2018,07,08,06,28,21.00
2018,07,08,06,29,21.00
2018,07,08,06,30,21.00
2018,07,08,06,31,23.20
2018,07,08,06,32,25.00
2018,07,08,06,33,23.50
2018,07,08,06,34,23.00
2018,07,08,06,35,24.80
2018,07,08,06,36,25.00
2018,07,08,06,37,25.00
2018,07,08,06,38,25.00
2018,07,08,06,39,25.00
2018,07,08,06,40,25.00
2018,07,08,06,41,25.00
2018,07,08,06,42,25.00
2018,07,08,06,43,25.00
2018,07,08,06,44,25.00
2018,07,08,06,45,27.40
2018,07,08,06,46,29.80
2018,07,08,06,47,30.00
2018,07,08,06,48,30.80
2018,07,08,06,49,35.40
2018,07,08,06,50,41.80
2018,07,08,06,51,59.80
2018,07,08,06,52,80.90
2018,07,08,06,53,110.60
2018,07,08,06,54,132.80
2018,07,08,06,55,138.50
2018,07,08,06,56,140.60
2018,07,08,06,57,141.90
2018,07,08,06,58,145.90
2018,07,08,06,59,148.10
2018,07,08,07,00,149.40
2018,07,08,07,01,152.30
2018,07,08,07,02,155.40
2018,07,08,07,03,157.00
2018,07,08,07,04,159.10
2018,07,08,07,05,161.30
2018,07,08,07,06,162.70
2018,07,08,07,07,164.60
2018,07,08,07,08,165.00
2018,07,08,07,09,167.10
2018,07,08,07,10,169.20
2018,07,08,07,11,171.80
2018,07,08,07,12,174.60
2018,07,08,07,13,176.80
2018,07,08,07,14,178.50
2018,07,08,07,15,180.10
2018,07,08,07,16,183.50
2018,07,08,07,17,185.00
2018,07,08,07,18,185.80
2018,07,08,07,19,187.80
2018,07,08,07,20,190.10
2018,07,08,07,21,192.10
2018,07,08,07,22,193.50
2018,07,08,07,23,196.20
2018,07,08,07,24,199.40
2018,07,08,07,25,202.00
2018,07,08,07,26,204.00
2018,07,08,07,27,205.30
2018,07,08,07,28,208.20
2018,07,08,07,29,210.60
2018,07,08,07,30,212.80
2018,07,08,07,31,216.10
2018,07,08,07,32,218.00
2018,07,08,07,33,199.50
2018,07,08,07,34,148.80
2018,07,08,07,35,142.40
2018,07,08,07,36,150.60
2018,07,08,07,37,137.20
2018,07,08,07,38,88.00
2018,07,08,07,39,82.40
2018,07,08,07,40,102.20
2018,07,08,07,41,132.20
2018,07,08,07,42,149.00
2018,07,08,07,43,166.40
2018,07,08,07,44,266.00
2018,07,08,07,45,252.50
2018,07,08,07,46,192.60
2018,07,08,07,47,118.20
2018,07,08,07,48,68.20
2018,07,08,07,49,63.10
2018,07,08,07,50,62.00
2018,07,08,07,51,58.80
2018,07,08,07,52,64.30
2018,07,08,07,53,82.20
2018,07,08,07,54,156.20
2018,07,08,07,55,167.60
2018,07,08,07,56,221.60
2018,07,08,07,57,254.80
2018,07,08,07,58,250.00
2018,07,08,07,59,166.40
2018,07,08,08,00,99.30
2018,07,08,08,01,81.80
2018,07,08,08,02,70.00
2018,07,08,08,03,69.00
2018,07,08,08,04,76.50
2018,07,08,08,05,93.00
2018,07,08,08,06,93.00
2018,07,08,08,07,92.40
2018,07,08,08,08,90.60
2018,07,08,08,09,90.40
2018,07,08,08,10,88.40
2018,07,08,08,11,84.20
2018,07,08,08,12,81.60
2018,07,08,08,13,83.40
2018,07,08,08,14,93.30
2018,07,08,08,15,90.20
2018,07,08,08,16,85.70
2018,07,08,08,17,83.80
2018,07,08,08,18,83.00
2018,07,08,08,19,88.60
2018,07,08,08,20,101.00
2018,07,08,08,21,100.80
2018,07,08,08,22,91.60
2018,07,08,08,23,80.30
2018,07,08,08,24,81.70
2018,07,08,08,25,85.60
2018,07,08,08,26,90.80
2018,07,08,08,27,91.00
2018,07,08,08,28,89.90
2018,07,08,08,29,82.40
2018,07,08,08,30,74.00
2018,07,08,08,31,75.30
2018,07,08,08,32,96.80
2018,07,08,08,33,169.40
2018,07,08,08,34,207.00
2018,07,08,08,35,398.20
2018,07,08,08,36,451.80
2018,07,08,08,37,441.50
2018,07,08,08,38,449.10
2018,07,08,08,39,456.80
2018,07,08,08,40,443.20
2018,07,08,08,41,427.60
2018,07,08,08,42,419.10
2018,07,08,08,43,420.00
2018,07,08,08,44,423.80
2018,07,08,08,45,425.00
2018,07,08,08,46,401.80
2018,07,08,08,47,398.20
2018,07,08,08,48,424.20
2018,07,08,08,49,436.70
2018,07,08,08,50,443.60
2018,07,08,08,51,449.20
2018,07,08,08,52,462.10
2018,07,08,08,53,470.40
2018,07,08,08,54,475.60
2018,07,08,08,55,481.00
2018,07,08,08,56,485.80
2018,07,08,08,57,492.50
2018,07,08,08,58,490.60
2018,07,08,08,59,483.40
2018,07,08,09,00,486.30
2018,07,08,09,01,478.90
2018,07,08,09,02,470.20
2018,07,08,09,03,461.00
2018,07,08,09,04,458.10
2018,07,08,09,05,455.90
2018,07,08,09,06,454.40
2018,07,08,09,07,457.50
2018,07,08,09,08,464.50
2018,07,08,09,09,466.00
2018,07,08,09,10,467.90
2018,07,08,09,11,455.60
2018,07,08,09,12,457.10
2018,07,08,09,13,448.80
2018,07,08,09,14,444.30
2018,07,08,09,15,438.00
2018,07,08,09,16,428.00
2018,07,08,09,17,424.60
2018,07,08,09,18,422.90
2018,07,08,09,19,423.60
2018,07,08,09,20,407.00
2018,07,08,09,21,409.70
2018,07,08,09,22,406.20
2018,07,08,09,23,408.40
2018,07,08,09,24,411.50
2018,07,08,09,25,416.00
2018,07,08,09,26,419.80
2018,07,08,09,27,414.30
2018,07,08,09,28,408.00
2018,07,08,09,29,410.00
2018,07,08,09,30,417.80
2018,07,08,09,31,420.00
2018,07,08,09,32,411.50
2018,07,08,09,33,416.20
2018,07,08,09,34,429.20
2018,07,08,09,35,436.80
2018,07,08,09,36,443.80
2018,07,08,09,37,466.60
2018,07,08,09,38,469.10
2018,07,08,09,39,464.80
2018,07,08,09,40,454.20
2018,07,08,09,41,450.00
2018,07,08,09,42,439.80
2018,07,08,09,43,427.50
2018,07,08,09,44,415.70
2018,07,08,09,45,422.40
2018,07,08,09,46,427.60
2018,07,08,09,47,438.50
2018,07,08,09,48,437.60
2018,07,08,09,49,444.20
2018,07,08,09,50,485.60
2018,07,08,09,51,531.90
2018,07,08,09,52,543.00
2018,07,08,09,53,569.80
2018,07,08,09,54,586.10
2018,07,08,09,55,547.00
2018,07,08,09,56,547.00
2018,07,08,09,57,548.50
2018,07,08,09,58,564.00
2018,07,08,09,59,570.00
2018,07,08,10,00,538.20
2018,07,08,10,01,508.40
2018,07,08,10,02,497.00
2018,07,08,10,03,414.50
2018,07,08,10,04,365.80
2018,07,08,10,05,313.50
2018,07,08,10,06,329.70
2018,07,08,10,07,401.50
2018,07,08,10,08,415.00
2018,07,08,10,09,412.30
2018,07,08,10,10,402.00
2018,07,08,10,11,394.90
2018,07,08,10,12,389.90
2018,07,08,10,13,377.90
2018,07,08,10,14,361.00
2018,07,08,10,15,357.00
2018,07,08,10,16,365.50
2018,07,08,10,17,367.20
2018,07,08,10,18,367.30
2018,07,08,10,19,357.90
2018,07,08,10,20,352.70
2018,07,08,10,21,350.30
2018,07,08,10,22,342.50
2018,07,08,10,23,333.20
2018,07,08,10,24,326.50
2018,07,08,10,25,321.10
2018,07,08,10,26,314.00
2018,07,08,10,27,308.20
2018,07,08,10,28,306.00
2018,07,08,10,29,306.30
2018,07,08,10,30,310.00
2018,07,08,10,31,320.50
2018,07,08,10,32,333.50
2018,07,08,10,33,340.10
2018,07,08,10,34,339.80
2018,07,08,10,35,334.30
2018,07,08,10,36,326.50
2018,07,08,10,37,325.00
2018,07,08,10,38,323.20
2018,07,08,10,39,314.10
2018,07,08,10,40,305.00
2018,07,08,10,41,299.90
2018,07,08,10,42,296.00
2018,07,08,10,43,293.20
2018,07,08,10,44,293.00
2018,07,08,10,45,292.80
2018,07,08,10,46,289.20
2018,07,08,10,47,288.00
2018,07,08,10,48,288.00
2018,07,08,10,49,289.90
2018,07,08,10,50,294.30
2018,07,08,10,51,300.50
2018,07,08,10,52,310.80
2018,07,08,10,53,322.30
2018,07,08,10,54,346.60
2018,07,08,10,55,410.40
2018,07,08,10,56,447.70
2018,07,08,10,57,505.80
2018,07,08,10,58,538.00
2018,07,08,10,59,515.90
2018,07,08,11,00,549.50
2018,07,08,11,01,579.80
2018,07,08,11,02,616.50
2018,07,08,11,03,648.60
2018,07,08,11,04,681.90
2018,07,08,11,05,681.60
2018,07,08,11,06,668.00
2018,07,08,11,07,635.50
2018,07,08,11,08,639.80
2018,07,08,11,09,650.50
2018,07,08,11,10,653.40
2018,07,08,11,11,697.70
2018,07,08,11,12,739.40
2018,07,08,11,13,756.20
2018,07,08,11,14,761.80
2018,07,08,11,15,726.70
2018,07,08,11,16,698.80
2018,07,08,11,17,661.00
2018,07,08,11,18,661.00
2018,07,08,11,19,661.00
2018,07,08,11,20,661.00
2018,07,08,11,21,661.00
2018,07,08,11,22,661.00
2018,07,08,11,23,665.70
2018,07,08,11,24,718.00
2018,07,08,11,25,762.50
2018,07,08,11,26,779.50
2018,07,08,11,27,788.00
2018,07,08,11,28,788.00
2018,07,08,11,29,799.00
2018,07,08,11,30,799.30
2018,07,08,11,31,772.80
2018,07,08,11,32,765.00
2018,07,08,11,33,690.30
2018,07,08,11,34,745.80
2018,07,08,11,35,757.00
2018,07,08,11,36,789.80
2018,07,08,11,37,787.00
2018,07,08,11,38,791.40
2018,07,08,11,39,793.90
2018,07,08,11,40,803.20
2018,07,08,11,41,779.90
2018,07,08,11,42,766.00
2018,07,08,11,43,766.00
2018,07,08,11,44,766.00
2018,07,08,11,45,766.00
2018,07,08,11,46,717.20
2018,07,08,11,47,530.50
2018,07,08,11,48,617.30
2018,07,08,11,49,657.00
2018,07,08,11,50,657.00
2018,07,08,11,51,613.70
2018,07,08,11,52,581.00
2018,07,08,11,53,578.00
2018,07,08,11,54,427.40
2018,07,08,11,55,392.00
2018,07,08,11,56,392.00
2018,07,08,11,57,449.50
2018,07,08,11,58,759.30
2018,07,08,11,59,767.70
2018,07,08,12,00,749.40
2018,07,08,12,01,736.50
2018,07,08,12,02,734.40
2018,07,08,12,03,715.40
2018,07,08,12,04,693.40
2018,07,08,12,05,681.80
2018,07,08,12,06,680.00
2018,07,08,12,07,667.20
2018,07,08,12,08,714.50
2018,07,08,12,09,727.30
2018,07,08,12,10,727.20
2018,07,08,12,11,729.40
2018,07,08,12,12,727.00
2018,07,08,12,13,752.10
2018,07,08,12,14,740.40
2018,07,08,12,15,678.00
2018,07,08,12,16,696.70
2018,07,08,12,17,716.30
2018,07,08,12,18,648.10
2018,07,08,12,19,730.00
2018,07,08,12,20,772.70
2018,07,08,12,21,792.60
2018,07,08,12,22,783.20
2018,07,08,12,23,806.00
2018,07,08,12,24,836.70
2018,07,08,12,25,836.60
2018,07,08,12,26,840.80
2018,07,08,12,27,844.00
2018,07,08,12,28,845.80
2018,07,08,12,29,839.80
2018,07,08,12,30,838.50
2018,07,08,12,31,845.20
2018,07,08,12,32,833.70
2018,07,08,12,33,817.80
2018,07,08,12,34,819.50
2018,07,08,12,35,825.90
2018,07,08,12,36,811.10
2018,07,08,12,37,833.50
2018,07,08,12,38,853.60
2018,07,08,12,39,799.30
2018,07,08,12,40,854.70
2018,07,08,12,41,857.00
2018,07,08,12,42,861.00
2018,07,08,12,43,861.00
2018,07,08,12,44,833.10
2018,07,08,12,45,796.00
2018,07,08,12,46,590.30
2018,07,08,12,47,436.00
2018,07,08,12,48,833.10
2018,07,08,12,49,939.00
2018,07,08,12,50,939.00
2018,07,08,12,51,939.00
2018,07,08,12,52,927.00
2018,07,08,12,53,858.20
2018,07,08,12,54,848.20
2018,07,08,12,55,840.40
2018,07,08,12,56,862.50
2018,07,08,12,57,923.10
2018,07,08,12,58,901.20
2018,07,08,12,59,884.00
2018,07,08,13,00,884.00
2018,07,08,13,01,596.00
2018,07,08,13,02,498.60
2018,07,08,13,03,548.00
2018,07,08,13,04,548.00
2018,07,08,13,05,548.00
2018,07,08,13,06,667.60
2018,07,08,13,07,847.00
2018,07,08,13,08,847.00
2018,07,08,13,09,869.80
2018,07,08,13,10,859.90
2018,07,08,13,11,854.00
2018,07,08,13,12,807.60
2018,07,08,13,13,749.90
2018,07,08,13,14,665.50
2018,07,08,13,15,714.00
2018,07,08,13,16,680.10
2018,07,08,13,17,616.60
2018,07,08,13,18,635.70
2018,07,08,13,19,631.00
2018,07,08,13,20,715.50
2018,07,08,13,21,740.00
2018,07,08,13,22,786.60
2018,07,08,13,23,800.00
2018,07,08,13,24,797.20
2018,07,08,13,25,753.90
2018,07,08,13,26,804.80
2018,07,08,13,27,780.60
2018,07,08,13,28,761.00
2018,07,08,13,29,798.30
2018,07,08,13,30,852.80
2018,07,08,13,31,856.10
2018,07,08,13,32,860.80
2018,07,08,13,33,858.80
2018,07,08,13,34,870.60
2018,07,08,13,35,862.70
2018,07,08,13,36,877.00
2018,07,08,13,37,828.90
2018,07,08,13,38,811.80
2018,07,08,13,39,821.60
2018,07,08,13,40,816.50
2018,07,08,13,41,853.10
2018,07,08,13,42,867.20
2018,07,08,13,43,817.20
2018,07,08,13,44,757.00
2018,07,08,13,45,684.00
2018,07,08,13,46,749.30
2018,07,08,13,47,751.60
2018,07,08,13,48,753.50
2018,07,08,13,49,830.90
2018,07,08,13,50,898.00
2018,07,08,13,51,898.00
2018,07,08,13,52,898.00
2018,07,08,13,53,898.00
2018,07,08,13,54,754.80
2018,07,08,13,55,723.80
2018,07,08,13,56,734.30
2018,07,08,13,57,635.00
2018,07,08,13,58,635.00
2018,07,08,13,59,639.80
2018,07,08,14,00,663.60
2018,07,08,14,01,686.40
2018,07,08,14,02,712.50
2018,07,08,14,03,738.00
2018,07,08,14,04,639.50
2018,07,08,14,05,603.00
2018,07,08,14,06,596.00
2018,07,08,14,07,602.40
2018,07,08,14,08,609.60
2018,07,08,14,09,731.00
2018,07,08,14,10,702.20
2018,07,08,14,11,677.00
2018,07,08,14,12,652.40
2018,07,08,14,13,629.50
2018,07,08,14,14,633.00
2018,07,08,14,15,654.60
2018,07,08,14,16,636.50
2018,07,08,14,17,563.40
2018,07,08,14,18,628.90
2018,07,08,14,19,650.50
2018,07,08,14,20,879.50
2018,07,08,14,21,895.80
2018,07,08,14,22,837.20
2018,07,08,14,23,783.20
2018,07,08,14,24,788.00
2018,07,08,14,25,741.20
2018,07,08,14,26,661.90
2018,07,08,14,27,672.50
2018,07,08,14,28,662.40
2018,07,08,14,29,683.10
2018,07,08,14,30,689.20
2018,07,08,14,31,736.80
2018,07,08,14,32,747.50
2018,07,08,14,33,719.30
2018,07,08,14,34,637.60
2018,07,08,14,35,629.80
2018,07,08,14,36,689.80
2018,07,08,14,37,728.00
2018,07,08,14,38,843.50
2018,07,08,14,39,876.40
2018,07,08,14,40,938.90
2018,07,08,14,41,914.00
2018,07,08,14,42,914.00
2018,07,08,14,43,914.00
2018,07,08,14,44,735.80
2018,07,08,14,45,320.00
2018,07,08,14,46,320.00
2018,07,08,14,47,320.00
2018,07,08,14,48,320.00
2018,07,08,14,49,629.80
2018,07,08,14,50,733.00
2018,07,08,14,51,1027.30
2018,07,08,14,52,1060.00
2018,07,08,14,53,1060.00
2018,07,08,14,54,978.80
2018,07,08,14,55,707.30
2018,07,08,14,56,634.60
2018,07,08,14,57,598.00
2018,07,08,14,58,720.70
2018,07,08,14,59,821.00
2018,07,08,15,00,699.50
2018,07,08,15,01,659.00
2018,07,08,15,02,659.00
2018,07,08,15,03,672.90
2018,07,08,15,04,812.00
2018,07,08,15,05,880.00
2018,07,08,15,06,876.80
2018,07,08,15,07,932.00
2018,07,08,15,08,861.30
2018,07,08,15,09,804.20
2018,07,08,15,10,840.30
2018,07,08,15,11,847.00
2018,07,08,15,12,847.00
2018,07,08,15,13,585.70
2018,07,08,15,14,645.20
2018,07,08,15,15,683.30
2018,07,08,15,16,856.20
2018,07,08,15,17,839.30
2018,07,08,15,18,905.00
2018,07,08,15,19,905.00
2018,07,08,15,20,905.00
2018,07,08,15,21,905.00
2018,07,08,15,22,905.00
2018,07,08,15,23,761.80
2018,07,08,15,24,726.00
2018,07,08,15,25,726.00
2018,07,08,15,26,725.60
2018,07,08,15,27,722.00
2018,07,08,15,28,636.20
2018,07,08,15,29,424.00
2018,07,08,15,30,406.00
2018,07,08,15,31,482.50
2018,07,08,15,32,552.00
2018,07,08,15,33,500.20
2018,07,08,15,34,493.50
2018,07,08,15,35,435.60
2018,07,08,15,36,427.30
2018,07,08,15,37,476.00
2018,07,08,15,38,525.00
2018,07,08,15,39,666.10
2018,07,08,15,40,629.00
2018,07,08,15,41,500.40
2018,07,08,15,42,334.50
2018,07,08,15,43,280.00
2018,07,08,15,44,299.50
2018,07,08,15,45,320.80
2018,07,08,15,46,362.50
2018,07,08,15,47,397.10
2018,07,08,15,48,418.00
2018,07,08,15,49,474.00
2018,07,08,15,50,688.20
2018,07,08,15,51,654.10
2018,07,08,15,52,610.30
2018,07,08,15,53,568.00
2018,07,08,15,54,568.00
2018,07,08,15,55,568.00
2018,07,08,15,56,377.60
2018,07,08,15,57,313.00
2018,07,08,15,58,308.50
2018,07,08,15,59,314.70
2018,07,08,16,00,316.40
2018,07,08,16,01,329.00
2018,07,08,16,02,334.20
2018,07,08,16,03,353.00
2018,07,08,16,04,397.50
2018,07,08,16,05,414.00
2018,07,08,16,06,472.80
2018,07,08,16,07,462.50
2018,07,08,16,08,479.00
2018,07,08,16,09,582.00
2018,07,08,16,10,582.00
2018,07,08,16,11,635.80
2018,07,08,16,12,851.00
2018,07,08,16,13,800.20
2018,07,08,16,14,724.00
2018,07,08,16,15,724.00
2018,07,08,16,16,724.00
2018,07,08,16,17,721.80
2018,07,08,16,18,721.00
2018,07,08,16,19,666.60
2018,07,08,16,20,658.90
2018,07,08,16,21,627.60
2018,07,08,16,22,447.20
2018,07,08,16,23,465.40
2018,07,08,16,24,415.70
2018,07,08,16,25,363.60
2018,07,08,16,26,339.40
2018,07,08,16,27,329.60
2018,07,08,16,28,325.60
2018,07,08,16,29,328.20
2018,07,08,16,30,329.00
2018,07,08,16,31,329.50
2018,07,08,16,32,342.90
2018,07,08,16,33,368.00
2018,07,08,16,34,338.70
2018,07,08,16,35,339.80
2018,07,08,16,36,325.70
2018,07,08,16,37,315.40
2018,07,08,16,38,325.60
2018,07,08,16,39,322.80
2018,07,08,16,40,306.80
2018,07,08,16,41,293.20
2018,07,08,16,42,279.00
2018,07,08,16,43,274.60
2018,07,08,16,44,260.60
2018,07,08,16,45,254.40
2018,07,08,16,46,251.90
2018,07,08,16,47,250.40
2018,07,08,16,48,258.10
2018,07,08,16,49,277.30
2018,07,08,16,50,292.00
2018,07,08,16,51,306.10
2018,07,08,16,52,333.60
2018,07,08,16,53,426.40
2018,07,08,16,54,495.20
2018,07,08,16,55,422.00
2018,07,08,16,56,420.50
2018,07,08,16,57,443.60
2018,07,08,16,58,429.60
2018,07,08,16,59,444.00
2018,07,08,17,00,436.20
2018,07,08,17,01,354.90
2018,07,08,17,02,300.00
2018,07,08,17,03,298.00
2018,07,08,17,04,315.00
2018,07,08,17,05,333.10
2018,07,08,17,06,340.00
2018,07,08,17,07,318.30
2018,07,08,17,08,290.10
2018,07,08,17,09,281.20
2018,07,08,17,10,282.00
2018,07,08,17,11,301.80